Location: Sungai Kamana Besar
(2.6333°N, 113.4333°E)
Time: 05:58:37
(UTC+00:00)

Meteor 2-3 Rocket - Pass Details

Date: 29 May 2022
Orbit: 841 x 886 km, 81.2° (Epoch: 26 June)

Event Time Altitude Azimuth Distance (km) Brightness Sun altitude
Rises 21:14:14 0° 182° (S) 3,484 6.6 -15.1°
Reaches altitude 10° 21:16:41 10° 181° (S) 2,545 6.0 -14.5°
Maximum altitude 21:22:29 79° 95° (E) 904 3.9 -13.2°
Drops below altitude 10° 21:28:16 10° 9° (N) 2,533 6.6 -11.9°
Sets 21:30:42 0° 8° (N) 3,466 7.3 -11.3°
